Total_Precipitation_Accumulation
1.52 1.48 2.32 3.38 3.89 3.04 2.64 2.42 2.00 1.81 1.43 1.16 0.95 0.96 1.32 1.65 1.81 2.09 2.19 2.29 1.49 1.30 1.54 2.13 2.68 2.49 2.26 2.14 2.09 1.94 1.69 1.35 1.17 1.13 1.12 1.02 0.97 0.96 0.90 0.89 0.85 0.84 0.80 0.78 0.90 1.07 1.10 1.11 1.13
1.17 1.79 2.87 3.86 3.42 2.60 2.63 2.34 2.02 1.72 1.25 0.92 0.75 0.74 0.83 0.79 0.70 1.18 2.32 2.54 1.53 1.22 1.40 1.69 2.44 2.36 2.26 2.16 1.94 1.88 1.64 1.28 1.16 1.15 1.11 0.97 0.92 0.97 1.02 1.01 0.88 0.84 0.80 0.75 0.79 1.02 1.07 1.07 1.09
1.63 2.52 3.46 3.64 2.68 2.43 2.62 2.36 1.96 1.32 0.95 0.83 0.74 0.65 0.74 0.93 0.97 1.54 2.29 1.90 1.42 1.25 1.45 2.06 2.54 2.28 2.14 1.95 1.78 1.79 1.67 1.42 1.28 1.18 1.09 1.03 0.98 0.95 1.01 0.97 0.93 0.92 0.88 0.87 0.94 1.11 1.10 1.04 0.99
2.09 3.03 3.39 3.04 2.41 2.11 2.10 2.06 1.75 1.28 0.96 0.66 0.64 0.70 0.71 1.06 1.22 1.56 1.75 1.41 1.28 1.28 1.45 2.00 2.27 2.02 1.88 1.78 1.67 1.62 1.67 1.66 1.42 1.22 1.15 1.12 1.08 1.08 1.08 1.06 0.98 1.04 1.04 1.05 1.06 1.09 1.11 1.09 1.04
2.53 3.10 3.09 2.83 2.47 2.16 1.81 1.67 1.57 1.37 1.10 0.76 0.74 0.87 1.13 1.66 1.60 1.49 1.48 1.30 1.17 1.13 1.22 1.61 1.97 1.81 1.70 1.65 1.62 1.52 1.60 1.69 1.53 1.24 1.24 1.25 1.20 1.21 1.21 1.19 1.10 1.14 1.13 1.12 1.14 1.05 1.11 1.14 1.11
2.96 2.90 2.93 2.85 2.69 2.36 1.94 1.49 1.34 1.27 1.01 0.79 0.83 0.97 1.50 2.02 1.90 1.79 1.51 1.51 1.33 1.17 1.12 1.27 1.60 1.64 1.52 1.53 1.62 1.51 1.51 1.61 1.53 1.35 1.31 1.22 1.22 1.29 1.32 1.21 1.16 1.15 1.16 1.20 1.20 1.12 1.12 1.11 1.14
2.84 2.71 2.71 2.35 2.46 2.70 2.07 1.32 1.35 1.31 1.18 0.96 0.75 0.96 1.44 1.79 1.67 1.62 1.48 1.50 1.53 1.46 1.33 1.18 1.18 1.29 1.34 1.43 1.55 1.50 1.45 1.44 1.39 1.43 1.39 1.35 1.34 1.31 1.23 1.16 1.15 1.16 1.21 1.26 1.25 1.17 1.14 1.17 1.20
2.34 2.38 2.32 2.29 2.47 2.62 1.86 1.16 1.04 1.18 1.13 0.77 0.81 1.05 1.30 1.32 1.28 1.33 1.41 1.58 1.58 1.52 1.39 1.17 1.05 1.05 1.15 1.13 1.28 1.51 1.54 1.46 1.37 1.40 1.41 1.42 1.36 1.23 1.17 1.06 1.12 1.19 1.22 1.35 1.35 1.26 1.21 1.25 1.21
1.95 2.36 2.59 2.64 2.55 2.23 1.50 1.20 0.98 0.88 0.86 0.79 0.78 0.85 0.96 0.88 1.01 1.16 1.15 1.18 1.30 1.25 1.18 1.09 1.04 1.07 1.16 1.19 1.18 1.45 1.55 1.47 1.27 1.21 1.28 1.26 1.06 1.02 1.05 1.04 1.29 1.29 1.38 1.50 1.48 1.42 1.37 1.25 1.23
1.98 2.32 2.39 1.97 1.58 1.50 1.29 1.15 1.04 1.08 1.12 0.92 0.85 0.86 0.91 0.89 0.95 1.02 1.01 1.00 1.03 0.97 0.88 0.84 0.85 0.94 1.05 1.11 1.43 1.66 1.49 1.41 1.15 1.17 1.06 1.05 1.09 1.16 1.01 1.10 1.44 1.47 1.53 1.55 1.58 1.54 1.40 1.12 0.96
1.65 1.98 1.69 1.47 1.21 1.01 1.05 1.05 0.86 1.00 1.18 0.98 0.90 0.87 0.92 0.96 0.95 0.98 0.96 0.85 0.81 0.74 0.67 0.62 0.58 0.60 0.68 0.87 1.22 1.51 1.65 1.64 1.59 1.40 1.19 1.15 0.98 0.87 0.83 0.89 1.06 1.17 1.29 1.29 1.35 1.33 1.09 0.97 0.95
1.59 1.56 1.38 1.35 1.01 0.97 0.96 0.90 0.85 0.86 0.94 0.85 0.93 0.85 0.84 0.90 0.91 0.88 0.89 0.83 0.73 0.71 0.66 0.57 0.54 0.50 0.51 0.58 0.76 0.96 1.14 1.24 1.29 1.20 1.07 1.13 0.99 0.88 0.89 0.89 0.88 0.90 1.04 1.19 1.21 1.21 1.07 0.95 0.87
1.65 1.62 1.31 1.08 0.95 0.90 0.83 0.80 0.80 0.86 0.80 0.73 0.85 0.91 0.93 0.91 0.89 0.94 0.98 0.94 0.82 0.82 0.81 0.70 0.58 0.54 0.53 0.56 0.62 0.68 0.85 0.95 1.00 1.05 1.00 1.01 1.01 0.99 0.94 0.86 0.87 0.80 0.92 1.08 1.19 1.16 1.08 1.06 0.99
1.46 1.45 1.47 1.27 1.06 0.94 0.93 0.81 0.71 0.86 0.84 0.81 0.90 0.96 0.93 0.96 0.87 0.86 0.90 0.96 0.90 0.87 0.86 0.83 0.69 0.65 0.62 0.58 0.59 0.61 0.71 0.79 0.83 0.80 0.80 0.91 1.00 0.99 0.97 0.95 0.98 0.94 0.99 1.14 1.17 1.08 1.13 1.21 1.12
1.33 1.57 1.56 1.39 1.14 1.02 1.02 1.11 0.83 0.77 0.85 0.88 0.98 0.91 0.85 0.90 0.85 0.82 0.81 0.82 0.86 0.85 0.81 0.80 0.79 0.78 0.76 0.71 0.66 0.65 0.71 0.79 0.79 0.76 0.71 0.73 0.83 0.88 0.93 0.95 0.96 1.01 1.11 1.19 1.25 1.10 1.14 1.14 1.07
1.67 1.98 2.06 1.50 1.26 1.08 1.21 1.35 0.91 0.84 0.87 0.81 0.82 0.79 0.77 0.81 0.77 0.75 0.79 0.76 0.76 0.72 0.70 0.75 0.74 0.75 0.80 0.80 0.80 0.82 0.80 0.85 0.80 0.79 0.72 0.69 0.74 0.82 0.96 0.98 0.95 0.98 1.14 1.28 1.36 1.28 1.26 1.23 1.18
1.84 1.88 1.75 1.45 1.17 1.08 1.10 1.08 0.83 0.84 0.87 0.73 0.70 0.70 0.67 0.66 0.64 0.60 0.66 0.71 0.70 0.64 0.64 0.64 0.67 0.67 0.74 0.80 0.83 0.93 0.95 0.95 0.90 0.87 0.78 0.76 0.83 0.92 1.11 1.22 1.20 1.20 1.23 1.25 1.25 1.34 1.37 1.36 1.33
1.53 1.42 1.30 1.22 1.02 0.96 0.92 0.78 0.67 0.71 0.73 0.66 0.58 0.55 0.55 0.55 0.52 0.50 0.53 0.57 0.60 0.61 0.59 0.57 0.63 0.64 0.67 0.79 0.90 1.06 1.18 1.15 1.14 1.07 0.94 0.95 1.10 1.27 1.45 1.44 1.52 1.58 1.48 1.45 1.42 1.47 1.43 1.37 1.40
1.02 1.09 1.11 1.02 0.80 0.80 0.77 0.64 0.60 0.62 0.65 0.63 0.55 0.48 0.46 0.47 0.45 0.43 0.45 0.50 0.52 0.54 0.55 0.54 0.54 0.62 0.65 0.69 0.82 1.03 1.32 1.43 1.53 1.46 1.26 1.19 1.31 1.57 1.81 1.78 1.86 1.94 1.84 1.80 1.81 2.03 1.97 1.70 1.47
0.99 1.16 1.13 1.02 0.73 0.67 0.66 0.56 0.49 0.50 0.57 0.53 0.50 0.47 0.40 0.40 0.35 0.32 0.33 0.37 0.39 0.42 0.48 0.49 0.49 0.57 0.61 0.66 0.83 0.98 1.14 1.16 1.33 1.45 1.42 1.33 1.33 1.48 1.63 1.90 2.03 2.01 2.10 2.22 2.19 2.56 2.70 2.22 1.78
0.97 0.99 0.97 0.95 0.77 0.65 0.60 0.60 0.46 0.42 0.46 0.44 0.40 0.40 0.35 0.34 0.33 0.32 0.31 0.30 0.31 0.33 0.33 0.35 0.39 0.47 0.58 0.71 0.92 1.12 1.31 1.40 1.47 1.40 1.48 1.49 1.41 1.46 1.57 1.72 1.87 1.91 2.03 2.18 2.29 2.62 3.14 2.90 2.28
0.90 0.66 0.61 0.68 0.85 0.87 0.70 0.81 0.53 0.46 0.49 0.44 0.38 0.33 0.31 0.31 0.32 0.37 0.34 0.36 0.33 0.29 0.26 0.28 0.36 0.50 0.68 0.89 1.11 1.34 1.54 1.58 1.48 1.53 1.57 1.45 1.37 1.34 1.42 1.55 1.68 1.82 1.87 2.02 2.12 2.25 2.78 3.17 2.85
0.60 0.51 0.49 0.56 0.73 0.70 0.53 0.63 0.54 0.44 0.54 0.49 0.42 0.38 0.33 0.30 0.31 0.34 0.32 0.35 0.34 0.32 0.32 0.37 0.56 0.80 1.04 1.26 1.51 1.77 1.75 1.63 1.54 1.55 1.54 1.48 1.48 1.44 1.44 1.58 1.65 1.68 1.75 1.87 2.20 2.46 2.74 2.97 2.96
0.42 0.49 0.53 0.59 0.73 0.73 0.46 0.51 0.56 0.43 0.46 0.49 0.46 0.39 0.32 0.28 0.33 0.41 0.46 0.54 0.57 0.60 0.73 0.91 1.17 1.36 1.46 1.57 1.72 1.83 1.77 1.78 1.72 1.55 1.47 1.46 1.51 1.57 1.60 1.65 1.65 1.63 1.67 1.79 2.02 2.32 2.54 2.84 3.03
0.40 0.65 0.91 0.95 0.95 0.70 0.37 0.53 0.59 0.42 0.36 0.36 0.38 0.32 0.27 0.31 0.41 0.54 0.70 0.83 0.94 1.08 1.23 1.37 1.53 1.66 1.61 1.58 1.64 1.68 1.67 1.64 1.62 1.56 1.48 1.42 1.44 1.48 1.51 1.59 1.71 1.78 1.82 1.94 2.12 2.27 2.19 2.39 2.77
0.40 0.58 0.96 1.08 0.91 0.65 0.49 0.71 0.67 0.49 0.37 0.29 0.23 0.22 0.31 0.46 0.59 0.70 0.78 0.90 1.06 1.23 1.30 1.30 1.40 1.50 1.47 1.44 1.42 1.40 1.47 1.47 1.41 1.32 1.30 1.35 1.44 1.44 1.36 1.40 1.50 1.62 1.80 1.86 1.92 1.94 1.92 2.02 2.27
0.35 0.38 0.44 0.67 0.57 0.56 0.63 0.80 0.70 0.46 0.39 0.32 0.27 0.31 0.45 0.66 0.87 1.02 1.12 1.23 1.27 1.33 1.40 1.32 1.30 1.35 1.36 1.31 1.23 1.23 1.27 1.33 1.32 1.24 1.25 1.24 1.25 1.18 1.09 1.09 1.15 1.23 1.30 1.38 1.53 1.63 1.76 1.80 1.92
0.28 0.38 0.50 0.78 0.89 0.89 0.86 0.89 0.78 0.59 0.52 0.53 0.60 0.70 0.74 0.84 1.11 1.39 1.64 1.80 1.63 1.37 1.29 1.28 1.21 1.21 1.30 1.28 1.21 1.15 1.22 1.24 1.22 1.22 1.19 1.20 1.19 1.09 1.01 0.97 0.94 0.92 0.89 0.93 1.13 1.33 1.46 1.55 1.70
0.30 0.44 0.55 0.72 0.84 1.09 1.29 1.28 1.00 0.99 0.98 1.02 1.11 1.15 1.15 1.26 1.25 1.40 1.59 1.77 1.68 1.37 1.15 1.18 1.23 1.21 1.22 1.22 1.21 1.18 1.14 1.05 1.05 1.08 1.07 1.06 1.05 1.09 1.06 0.96 0.90 0.99 0.99 0.95 1.02 1.08 1.15 1.22 1.35
0.41 0.53 0.68 0.98 0.91 0.91 1.18 1.30 1.05 1.03 1.05 1.12 1.28 1.35 1.33 1.24 1.15 1.14 1.20 1.26 1.29 1.15 0.97 0.94 1.10 1.18 1.15 1.13 1.14 1.11 1.01 0.95 0.94 0.92 0.86 0.76 0.72 0.74 0.84 0.93 0.87 0.86 0.90 0.92 0.98 1.00 1.04 1.08 1.18